Notices

What's New in latest Release from April 7th, 2021:

- Updated Glossary, including Speed of Maximum Gust, and Total Hourly Precipitation

- Updated national and regional climate services offices contacts and prices information

- Addition of station inventory lists for 1981-2010, 1971-2000, and 1961-1990 Normals.

If you haven't already, please take our survey and provide feedback about our website: https://eccc.sondage-survey.ca/f/LanguageSelection.aspx?s=442ca660-fcf1-47c0-95a9-59707d6fd709

Hourly Data Report for March 26, 2019

MIRAMICHI RCS
NEW BRUNSWICK
Current Station Operator: ECCC - MSC

47°00'34.000" N
65°27'54.000" W
33.00 m
8100989
71744
ACQ

Download Data

Hourly Data (March 2019)
Hourly Data Report for March 26, 2019
TIME
LST
Temp Definition
°C
Dew Point Definition
°C
Rel Hum Definition
%
Precip. Amount Definition
mm

Wind Dir Definition
10's deg

Wind Spd Definition
km/h
Visibility Definition
km
Stn Press Definition
kPa
Hmdx Definition


Wind Chill Definition


Weather Definition


00:00 -10.1 -14.6 69 0.0 27 5   101.20   -13 LegendNANA
01:00 -10.9 -15.1 71 0.0 24 3   101.21   -13 LegendNANA
02:00 -10.3 -15.6 65 0.0 28 4   101.23   -13 LegendNANA
03:00 -11.8 -16.2 70 0.0 17 9   101.16   -17 LegendNANA
04:00 -12.6 -16.2 75 0.0 26 7   101.18   -17 LegendNANA
05:00 -12.2 -16.4 71 0.0 27 8   101.22   -17 LegendNANA
06:00 -12.3 -16.1 73 0.0 27 10   101.32   -18 LegendNANA
07:00 -11.5 -15.5 72 0.0 29 9   101.43   -17 LegendNANA
08:00 -8.4 -16.4 52 0.0 30 13   101.49   -14 LegendNANA
09:00 -7.8 -17.8 45 0.0 30 22   101.53   -15 LegendNANA
10:00 -7.2 -17.6 43 0.0 28 23   101.58   -15 LegendNANA
11:00 -6.4 -18.1 39 0.0 28 19   101.56   -13 LegendNANA
12:00 -5.6 -18.2 36 0.0 27 21   101.52   -12 LegendNANA
13:00 -4.4 -16.8 37 0.0 25 26   101.46   -12 LegendNANA
14:00 -3.6 -15.5 39 0.0 24 25   101.38   -11 LegendNANA
15:00 -2.7 -16.3 34 0.0 26 19   101.35   -8 LegendNANA
16:00 -2.1 -15.9 34 0.0 26 24   101.33   -8 LegendNANA
17:00 -2.6 -16.8 33 0.0 29 24   101.39   -9 LegendNANA
18:00 -2.7 -16.5 34 0.0 29 19   101.49   -8 LegendNANA
19:00 -3.7 -16.9 35 0.0 29 17   101.64   -9 LegendNANA
20:00 -4.8 -17.7 35 0.0 32 15   101.83   -10 LegendNANA
21:00 -6.0 -17.5 40 0.0 30 9   101.94   -10 LegendNANA
22:00 -7.7 -16.4 50 0.0 29 6   102.01   -11 LegendNANA
23:00 -9.7 -16.0 60 0.0 27 2   102.04   -11 LegendNANA

Notes on Data Quality.

Legend

  • E = Estimated
  • M = Missing
  • NA = Not Available*
  • [empty] = Indicates an unobserved value
Date modified: